SAS542 EGCC-EKCH

Flight info

Callsign SAS542
Flight time 1h 24m
Altitude 37000
Route DESIG1S DESIG L603 LAMIX UT29 LIBSO UL975 ROPAL DCT LESRA DCT TESPI TESPI3C
Aircraft A20N/M-SDE2E3FGHIRWXY/LB1

Departure

Time 2026-05-04 13:07
Airport Manchester Airport (EGCC)

Arrival

Time 2026-05-04 14:32
Airport Copenhagen Kastrup Airport (EKCH)
Time Latitude Longitude Altitude Speed Heading
2026-05-04 12:23 53.36554 -2.27934 258 ft 0 kts 45°
2026-05-04 12:40 53.36554 -2.27935 258 ft 1 kts 45°
2026-05-04 12:40 53.36540 -2.27959 258 ft 3 kts 50°
2026-05-04 12:41 53.36527 -2.27987 258 ft 3 kts 58°
2026-05-04 12:41 53.36518 -2.28018 258 ft 3 kts 79°
2026-05-04 12:41 53.36518 -2.28048 258 ft 3 kts 127°
2026-05-04 12:41 53.36520 -2.28054 258 ft 1 kts 135°
2026-05-04 12:57 53.36518 -2.28050 258 ft 1 kts 135°
2026-05-04 12:57 53.36511 -2.28038 258 ft 1 kts 135°
2026-05-04 12:58 53.36504 -2.28027 258 ft 2 kts 136°
2026-05-04 12:58 53.36492 -2.28009 258 ft 3 kts 137°
2026-05-04 12:58 53.36454 -2.27969 258 ft 9 kts 137°
2026-05-04 12:58 53.36398 -2.27933 258 ft 10 kts 200°
2026-05-04 12:59 53.36345 -2.28011 258 ft 11 kts 224°
2026-05-04 12:59 53.36284 -2.28062 258 ft 10 kts 195°
2026-05-04 12:59 53.36221 -2.28123 258 ft 11 kts 212°
2026-05-04 12:59 53.36153 -2.28141 258 ft 7 kts 143°
2026-05-04 13:00 53.36151 -2.28139 258 ft 0 kts 142°
2026-05-04 13:00 53.36141 -2.28125 258 ft 3 kts 138°
2026-05-04 13:00 53.36120 -2.28092 258 ft 6 kts 138°
2026-05-04 13:00 53.36076 -2.28025 258 ft 12 kts 137°
2026-05-04 13:01 53.36003 -2.27918 258 ft 15 kts 138°
2026-05-04 13:01 53.35897 -2.27849 258 ft 18 kts 184°
2026-05-04 13:01 53.35757 -2.27872 251 ft 19 kts 186°
2026-05-04 13:01 53.35636 -2.27897 244 ft 13 kts 205°
2026-05-04 13:02 53.35560 -2.28034 239 ft 20 kts 230°
2026-05-04 13:02 53.35428 -2.28157 239 ft 23 kts 186°
2026-05-04 13:02 53.35272 -2.28242 235 ft 25 kts 214°
2026-05-04 13:02 53.35175 -2.28416 231 ft 20 kts 231°
2026-05-04 13:03 53.35096 -2.28581 232 ft 16 kts 230°
2026-05-04 13:03 53.35000 -2.28762 230 ft 25 kts 223°
2026-05-04 13:03 53.34882 -2.28972 224 ft 26 kts 226°
2026-05-04 13:03 53.34769 -2.29185 218 ft 23 kts 232°
2026-05-04 13:04 53.34663 -2.29339 214 ft 16 kts 195°
2026-05-04 13:04 53.34587 -2.29331 220 ft 10 kts 164°
2026-05-04 13:04 53.34536 -2.29267 218 ft 7 kts 116°
2026-05-04 13:04 53.34541 -2.29211 220 ft 0 kts 45°
2026-05-04 13:05 53.34544 -2.29206 219 ft 0 kts 48°
2026-05-04 13:06 53.34545 -2.29204 218 ft 1 kts 48°
2026-05-04 13:06 53.34546 -2.29202 218 ft 0 kts 48°
2026-05-04 13:06 53.34595 -2.29110 218 ft 34 kts 50°
2026-05-04 13:06 53.34880 -2.28519 234 ft 96 kts 50°
2026-05-04 13:07 53.35434 -2.27382 250 ft 153 kts 50°
2026-05-04 13:07 53.36108 -2.25969 739 ft 156 kts 51°
2026-05-04 13:07 53.36774 -2.24548 1348 ft 159 kts 52°
2026-05-04 13:07 53.37510 -2.22960 1766 ft 187 kts 52°
2026-05-04 13:08 53.38374 -2.21123 2083 ft 217 kts 52°
2026-05-04 13:08 53.39373 -2.18996 2511 ft 244 kts 52°
2026-05-04 13:08 53.40449 -2.16697 3351 ft 253 kts 52°
2026-05-04 13:08 53.41546 -2.14347 4223 ft 259 kts 52°
2026-05-04 13:09 53.42662 -2.11953 4776 ft 262 kts 52°
2026-05-04 13:09 53.43789 -2.09531 4973 ft 264 kts 51°
2026-05-04 13:09 53.44921 -2.07098 4970 ft 265 kts 52°
2026-05-04 13:09 53.46053 -2.04659 4983 ft 266 kts 52°
2026-05-04 13:10 53.47181 -2.02227 5048 ft 268 kts 52°
2026-05-04 13:10 53.48334 -1.99756 5068 ft 269 kts 51°
2026-05-04 13:10 53.49496 -1.97296 5065 ft 269 kts 51°
2026-05-04 13:10 53.50624 -1.94795 5068 ft 269 kts 55°
2026-05-04 13:11 53.51646 -1.92142 5127 ft 270 kts 60°
2026-05-04 13:11 53.52280 -1.89166 5700 ft 274 kts 83°
2026-05-04 13:11 53.52287 -1.87043 6340 ft 275 kts 95°
2026-05-04 13:11 53.51854 -1.82884 7564 ft 278 kts 104°
2026-05-04 13:12 53.51322 -1.79782 8434 ft 282 kts 108°
2026-05-04 13:12 53.50704 -1.76622 9313 ft 286 kts 109°
2026-05-04 13:12 53.50063 -1.73423 10162 ft 291 kts 109°
2026-05-04 13:12 53.49411 -1.70102 10640 ft 310 kts 108°
2026-05-04 13:13 53.48731 -1.66510 10978 ft 332 kts 108°
2026-05-04 13:13 53.48037 -1.62715 11476 ft 347 kts 107°
2026-05-04 13:13 53.47334 -1.58795 12208 ft 354 kts 107°
2026-05-04 13:13 53.46624 -1.54806 13019 ft 359 kts 107°
2026-05-04 13:14 53.45913 -1.50805 13822 ft 365 kts 107°
2026-05-04 13:14 53.45182 -1.46710 14592 ft 369 kts 107°
2026-05-04 13:14 53.44438 -1.42556 15374 ft 372 kts 107°
2026-05-04 13:14 53.43687 -1.38382 16149 ft 375 kts 107°
2026-05-04 13:15 53.42927 -1.34171 16906 ft 379 kts 107°
2026-05-04 13:15 53.42157 -1.29922 17655 ft 382 kts 107°
2026-05-04 13:15 53.41380 -1.25632 18380 ft 386 kts 107°
2026-05-04 13:15 53.40595 -1.21309 19023 ft 389 kts 107°
2026-05-04 13:16 53.39802 -1.16949 19688 ft 392 kts 107°
2026-05-04 13:16 53.39003 -1.12571 20376 ft 393 kts 107°
2026-05-04 13:16 53.38198 -1.08173 21046 ft 395 kts 107°
2026-05-04 13:16 53.37400 -1.03822 21671 ft 398 kts 107°
2026-05-04 13:17 53.36579 -0.99357 22238 ft 402 kts 107°
2026-05-04 13:17 53.35751 -0.94860 22815 ft 406 kts 107°
2026-05-04 13:17 53.34913 -0.90324 23416 ft 408 kts 106°
2026-05-04 13:17 53.34069 -0.85767 23960 ft 410 kts 106°
2026-05-04 13:18 53.33218 -0.81183 24458 ft 413 kts 106°
2026-05-04 13:18 53.32465 -0.76609 24938 ft 414 kts 101°
2026-05-04 13:18 53.32060 -0.71835 25408 ft 415 kts 92°
2026-05-04 13:18 53.32119 -0.67006 25881 ft 415 kts 83°
2026-05-04 13:19 53.32690 -0.62276 26336 ft 416 kts 72°
2026-05-04 13:19 53.33696 -0.57725 26795 ft 418 kts 67°
2026-05-04 13:19 53.34456 -0.54763 27091 ft 419 kts 66°
2026-05-04 13:19 53.36105 -0.48832 27671 ft 421 kts 64°
2026-05-04 13:20 53.37380 -0.44408 28092 ft 423 kts 64°
2026-05-04 13:20 53.38669 -0.39943 28512 ft 424 kts 64°
2026-05-04 13:20 53.39948 -0.35476 28914 ft 426 kts 64°
2026-05-04 13:20 53.41212 -0.31034 29306 ft 428 kts 64°
2026-05-04 13:21 53.42493 -0.26510 29699 ft 429 kts 64°
2026-05-04 13:21 53.43764 -0.21996 30235 ft 427 kts 65°
2026-05-04 13:21 53.45030 -0.17483 30690 ft 425 kts 65°
2026-05-04 13:21 53.46289 -0.12983 31084 ft 425 kts 65°
2026-05-04 13:22 53.47543 -0.08484 31458 ft 425 kts 65°
2026-05-04 13:22 53.48778 -0.04048 31825 ft 424 kts 65°
2026-05-04 13:22 53.50025 0.00441 32156 ft 425 kts 65°
2026-05-04 13:22 53.51344 0.04913 32283 ft 430 kts 60°
2026-05-04 13:23 53.52988 0.09121 32587 ft 431 kts 53°
2026-05-04 13:23 53.54971 0.12890 32975 ft 430 kts 46°
2026-05-04 13:23 53.57109 0.16420 33349 ft 429 kts 44°
2026-05-04 13:23 53.59296 0.19851 33686 ft 429 kts 43°
2026-05-04 13:24 53.61508 0.23227 34009 ft 428 kts 43°
2026-05-04 13:24 53.63700 0.26540 34270 ft 428 kts 43°
2026-05-04 13:24 53.65922 0.29898 34475 ft 430 kts 43°
2026-05-04 13:25 53.70369 0.36669 34860 ft 432 kts 43°
2026-05-04 13:25 53.72599 0.40089 35057 ft 433 kts 43°
2026-05-04 13:25 53.74828 0.43518 35264 ft 433 kts 43°
2026-05-04 13:25 53.77049 0.46946 35593 ft 431 kts 43°
2026-05-04 13:26 53.79263 0.50369 35770 ft 432 kts 43°
2026-05-04 13:26 53.81485 0.53810 35886 ft 435 kts 43°
2026-05-04 13:26 53.85952 0.60742 36141 ft 439 kts 43°
2026-05-04 13:27 53.88092 0.64423 36324 ft 439 kts 50°
2026-05-04 13:27 53.89943 0.68531 36508 ft 439 kts 55°
2026-05-04 13:27 53.91684 0.72815 36667 ft 440 kts 57°
2026-05-04 13:27 53.93375 0.77165 36816 ft 441 kts 57°
2026-05-04 13:28 53.95039 0.81559 36952 ft 442 kts 58°
2026-05-04 13:28 53.96694 0.85976 37099 ft 443 kts 58°
2026-05-04 13:28 53.98325 0.90345 37242 ft 445 kts 58°
2026-05-04 13:28 53.99988 0.94796 37385 ft 446 kts 58°
2026-05-04 13:29 54.01654 0.99249 37557 ft 446 kts 58°
2026-05-04 13:29 54.03323 1.03709 37702 ft 447 kts 57°
2026-05-04 13:29 54.04990 1.08164 37818 ft 448 kts 57°
2026-05-04 13:29 54.06668 1.12650 37890 ft 450 kts 58°
2026-05-04 13:30 54.08354 1.17163 38042 ft 451 kts 58°
2026-05-04 13:30 54.10040 1.21686 38185 ft 451 kts 58°
2026-05-04 13:30 54.11702 1.26153 38317 ft 452 kts 58°
2026-05-04 13:30 54.13405 1.30741 38445 ft 453 kts 58°
2026-05-04 13:31 54.15071 1.35235 38581 ft 453 kts 58°
2026-05-04 13:31 54.16754 1.39783 38707 ft 454 kts 58°
2026-05-04 13:31 54.18436 1.44339 38812 ft 454 kts 58°
2026-05-04 13:31 54.20124 1.48918 38924 ft 454 kts 58°
2026-05-04 13:32 54.23494 1.58089 39056 ft 456 kts 58°
2026-05-04 13:32 54.26844 1.67237 39064 ft 456 kts 58°
2026-05-04 13:33 54.30204 1.76446 39059 ft 456 kts 58°
2026-05-04 13:33 54.33557 1.85671 39059 ft 456 kts 58°
2026-05-04 13:34 54.36901 1.94906 39056 ft 456 kts 58°
2026-05-04 13:34 54.40220 2.04106 39056 ft 456 kts 58°
2026-05-04 13:35 54.45214 2.18012 39058 ft 456 kts 58°
2026-05-04 13:36 54.48545 2.27335 39065 ft 458 kts 58°
2026-05-04 13:36 54.51871 2.36676 39056 ft 457 kts 58°
2026-05-04 13:37 54.55170 2.45974 39058 ft 457 kts 58°
2026-05-04 13:37 54.58489 2.55366 39061 ft 461 kts 58°
2026-05-04 13:38 54.61834 2.64870 39053 ft 461 kts 58°
2026-05-04 13:38 54.65138 2.74293 39055 ft 458 kts 58°
2026-05-04 13:39 54.68435 2.83730 39057 ft 459 kts 58°
2026-05-04 13:39 54.71708 2.93138 39061 ft 459 kts 58°
2026-05-04 13:40 54.73907 2.99477 39056 ft 459 kts 58°
2026-05-04 13:40 54.78691 3.11626 39053 ft 458 kts 53°
2026-05-04 13:41 54.81847 3.19022 39053 ft 458 kts 52°
2026-05-04 13:41 54.85659 3.27885 39049 ft 458 kts 52°
2026-05-04 13:42 54.91363 3.41214 39052 ft 460 kts 52°
2026-05-04 13:42 54.95173 3.50178 39050 ft 460 kts 52°
2026-05-04 13:43 54.98968 3.59145 39048 ft 460 kts 52°
2026-05-04 13:43 55.02757 3.68132 39048 ft 460 kts 53°
2026-05-04 13:44 55.06525 3.77100 39048 ft 460 kts 53°
2026-05-04 13:44 55.10301 3.86118 39041 ft 460 kts 53°
2026-05-04 13:45 55.13841 3.95437 39042 ft 462 kts 63°
2026-05-04 13:45 55.16516 4.05656 39042 ft 462 kts 66°
2026-05-04 13:46 55.19002 4.16030 39042 ft 463 kts 67°
2026-05-04 13:46 55.21449 4.26459 39040 ft 463 kts 67°
2026-05-04 13:47 55.23903 4.36909 39037 ft 463 kts 67°
2026-05-04 13:47 55.26355 4.47346 39037 ft 464 kts 67°
2026-05-04 13:48 55.28814 4.57841 39037 ft 465 kts 67°
2026-05-04 13:48 55.31251 4.68296 39034 ft 465 kts 67°
2026-05-04 13:49 55.33691 4.78817 39034 ft 465 kts 67°
2026-05-04 13:49 55.36124 4.89362 39037 ft 465 kts 67°
2026-05-04 13:50 55.38410 5.00010 39036 ft 465 kts 76°
2026-05-04 13:50 55.39824 5.11053 39037 ft 465 kts 78°
2026-05-04 13:51 55.41127 5.22220 39037 ft 466 kts 78°
2026-05-04 13:51 55.42409 5.33416 39037 ft 466 kts 78°
2026-05-04 13:52 55.44308 5.50216 39036 ft 466 kts 79°
2026-05-04 13:53 55.45554 5.61364 39031 ft 467 kts 79°
2026-05-04 13:53 55.46800 5.72616 39032 ft 468 kts 79°
2026-05-04 13:54 55.48653 5.89534 39028 ft 468 kts 79°
2026-05-04 13:55 55.50472 6.06369 39029 ft 468 kts 79°
2026-05-04 13:55 55.52279 6.23326 39027 ft 469 kts 79°
2026-05-04 13:56 55.53466 6.34597 39027 ft 470 kts 79°
2026-05-04 13:57 55.55241 6.51645 39021 ft 470 kts 79°
2026-05-04 13:58 55.57563 6.74326 39018 ft 470 kts 80°
2026-05-04 13:58 55.59285 6.91435 39032 ft 472 kts 80°
2026-05-04 13:59 55.60423 7.02878 39019 ft 473 kts 80°
2026-05-04 14:00 55.62113 7.20090 39018 ft 473 kts 80°
2026-05-04 14:00 55.63773 7.37256 39017 ft 474 kts 80°
2026-05-04 14:01 55.64873 7.48779 39013 ft 474 kts 80°
2026-05-04 14:02 55.66503 7.66075 39008 ft 474 kts 81°
2026-05-04 14:02 55.67576 7.77611 39007 ft 474 kts 81°
2026-05-04 14:03 55.68638 7.89152 39002 ft 475 kts 81°
2026-05-04 14:03 55.69690 8.00720 39004 ft 476 kts 81°
2026-05-04 14:04 55.71248 8.18068 38999 ft 476 kts 81°
2026-05-04 14:04 55.72278 8.29702 38998 ft 476 kts 81°
2026-05-04 14:05 55.73798 8.47113 38985 ft 476 kts 81°
2026-05-04 14:06 55.74797 8.58708 38986 ft 478 kts 81°
2026-05-04 14:06 55.75789 8.70374 38989 ft 478 kts 82°
2026-05-04 14:07 55.76771 8.82052 38987 ft 478 kts 82°
2026-05-04 14:07 55.77742 8.93726 38990 ft 478 kts 82°
2026-05-04 14:08 55.78540 9.03444 38987 ft 478 kts 82°
2026-05-04 14:08 55.79653 9.17142 38993 ft 479 kts 82°
2026-05-04 14:09 55.81054 9.34681 38988 ft 479 kts 82°
2026-05-04 14:10 55.82435 9.52292 38951 ft 479 kts 82°
2026-05-04 14:10 55.83343 9.64052 38949 ft 479 kts 82°
2026-05-04 14:11 55.84240 9.75836 38946 ft 480 kts 82°
2026-05-04 14:11 55.85125 9.87600 38648 ft 484 kts 82°
2026-05-04 14:11 55.85570 9.93569 37891 ft 487 kts 82°
2026-05-04 14:12 55.86012 9.99543 37021 ft 486 kts 82°
2026-05-04 14:12 55.86450 10.05510 36139 ft 486 kts 82°
2026-05-04 14:12 55.87315 10.17414 34474 ft 483 kts 82°
2026-05-04 14:13 55.87741 10.23337 33540 ft 482 kts 82°
2026-05-04 14:13 55.88167 10.29293 32417 ft 484 kts 82°
2026-05-04 14:13 55.88589 10.35242 31419 ft 483 kts 82°
2026-05-04 14:13 55.89003 10.41115 30383 ft 483 kts 82°
2026-05-04 14:14 55.89419 10.47064 29146 ft 483 kts 82°
2026-05-04 14:14 55.89139 10.58893 27359 ft 472 kts 101°
2026-05-04 14:14 55.88484 10.64559 26683 ft 462 kts 103°
2026-05-04 14:15 55.87135 10.75517 25354 ft 445 kts 103°
2026-05-04 14:15 55.85823 10.86137 24041 ft 434 kts 103°
2026-05-04 14:16 55.84451 10.96655 22627 ft 438 kts 106°
2026-05-04 14:16 55.83682 11.01912 21962 ft 437 kts 106°
2026-05-04 14:17 55.82139 11.12309 20596 ft 438 kts 106°
2026-05-04 14:17 55.81360 11.17545 19899 ft 438 kts 106°
2026-05-04 14:17 55.80743 11.28213 18887 ft 423 kts 89°
2026-05-04 14:18 55.80819 11.33376 18346 ft 415 kts 88°
2026-05-04 14:18 55.81069 11.43593 17283 ft 410 kts 88°
2026-05-04 14:19 55.81342 11.53649 16278 ft 404 kts 88°
2026-05-04 14:19 55.81477 11.58607 15800 ft 400 kts 88°
2026-05-04 14:19 55.81611 11.63541 15319 ft 397 kts 87°
2026-05-04 14:19 55.81742 11.68435 14832 ft 394 kts 88°
2026-05-04 14:20 55.81870 11.73286 14299 ft 392 kts 88°
2026-05-04 14:20 55.81997 11.78141 13647 ft 394 kts 88°
2026-05-04 14:20 55.82122 11.83011 12999 ft 393 kts 88°
2026-05-04 14:21 55.82365 11.92669 11818 ft 388 kts 88°
2026-05-04 14:21 55.82481 11.97378 11249 ft 386 kts 88°
2026-05-04 14:21 55.82596 12.02139 10665 ft 384 kts 88°
2026-05-04 14:21 55.82708 12.06863 10155 ft 378 kts 88°
2026-05-04 14:22 55.82814 12.11394 10008 ft 355 kts 88°
2026-05-04 14:22 55.82913 12.15670 9748 ft 337 kts 88°
2026-05-04 14:22 55.83005 12.19737 9441 ft 321 kts 88°
2026-05-04 14:22 55.83092 12.23641 8998 ft 313 kts 88°
2026-05-04 14:23 55.83233 12.30019 8120 ft 307 kts 88°
2026-05-04 14:23 55.83341 12.35060 7397 ft 303 kts 88°
2026-05-04 14:23 55.83419 12.38794 6867 ft 301 kts 88°
2026-05-04 14:24 55.83495 12.42458 6349 ft 298 kts 87°
2026-05-04 14:24 55.83546 12.44939 5976 ft 296 kts 88°
2026-05-04 14:24 55.83596 12.47359 5634 ft 293 kts 87°
2026-05-04 14:24 55.83716 12.53373 4664 ft 292 kts 87°
2026-05-04 14:25 55.83783 12.56957 4187 ft 287 kts 88°
2026-05-04 14:25 55.82768 12.63668 3271 ft 282 kts 114°
2026-05-04 14:25 55.81963 12.66828 3017 ft 278 kts 115°
2026-05-04 14:26 55.81162 12.69951 2990 ft 278 kts 115°
2026-05-04 14:26 55.80364 12.73076 2989 ft 278 kts 115°
2026-05-04 14:26 55.79552 12.76209 2964 ft 279 kts 115°
2026-05-04 14:26 55.78736 12.79334 2610 ft 278 kts 115°
2026-05-04 14:27 55.77817 12.82278 2492 ft 273 kts 132°
2026-05-04 14:27 55.76308 12.84087 2480 ft 253 kts 168°
2026-05-04 14:27 55.75734 12.84266 2477 ft 243 kts 182°
2026-05-04 14:27 55.73695 12.83412 2485 ft 217 kts 208°
2026-05-04 14:28 55.72130 12.81643 2503 ft 185 kts 225°
2026-05-04 14:28 55.71207 12.80190 2347 ft 171 kts 226°
2026-05-04 14:28 55.70340 12.78852 2154 ft 158 kts 226°
2026-05-04 14:28 55.69543 12.77626 1908 ft 145 kts 228°
2026-05-04 14:29 55.68373 12.75810 1588 ft 128 kts 229°
2026-05-04 14:29 55.67032 12.73724 1254 ft 127 kts 228°
2026-05-04 14:30 55.66366 12.72689 1073 ft 128 kts 229°
2026-05-04 14:30 55.65698 12.71652 872 ft 128 kts 228°
2026-05-04 14:30 55.64341 12.69547 537 ft 128 kts 227°
2026-05-04 14:31 55.63671 12.68519 335 ft 127 kts 226°
2026-05-04 14:31 55.62341 12.66450 28 ft 125 kts 225°
2026-05-04 14:32 55.61527 12.65186 21 ft 33 kts 221°
2026-05-04 14:32 55.61375 12.64952 28 ft 21 kts 223°
2026-05-04 14:32 55.61299 12.64779 26 ft 17 kts 236°
2026-05-04 14:32 55.61248 12.64586 27 ft 18 kts 252°
2026-05-04 14:33 55.61210 12.64389 22 ft 16 kts 251°
2026-05-04 14:33 55.61184 12.64233 19 ft 12 kts 269°
2026-05-04 14:33 55.61221 12.64112 20 ft 12 kts 334°
2026-05-04 14:33 55.61304 12.64140 21 ft 13 kts 34°
2026-05-04 14:34 55.61381 12.64229 19 ft 14 kts 33°
2026-05-04 14:34 55.61484 12.64347 21 ft 20 kts 33°
2026-05-04 14:34 55.61617 12.64500 24 ft 25 kts 33°
2026-05-04 14:34 55.61739 12.64640 22 ft 18 kts 33°
2026-05-04 14:35 55.61846 12.64764 21 ft 18 kts 33°
2026-05-04 14:35 55.61934 12.64864 21 ft 6 kts 32°
2026-05-04 14:35 55.61947 12.64878 21 ft 0 kts 33°
2026-05-04 14:37 55.61953 12.64885 21 ft 5 kts 32°
2026-05-04 14:37 55.62048 12.64992 27 ft 15 kts 33°
2026-05-04 14:38 55.62140 12.65101 27 ft 16 kts 32°
2026-05-04 14:38 55.62240 12.65196 28 ft 17 kts
2026-05-04 14:38 55.62349 12.65193 24 ft 15 kts 358°
2026-05-04 14:38 55.62463 12.65184 23 ft 18 kts 359°
2026-05-04 14:39 55.62556 12.65176 23 ft 12 kts 354°
2026-05-04 14:39 55.62630 12.65186 22 ft 10 kts 25°
2026-05-04 14:39 55.62687 12.65240 21 ft 8 kts 14°
2026-05-04 14:40 55.62738 12.65252 22 ft 0 kts